Hokitika (NZHK)

Aerodrome — Elev 146
New Zealand
S042.42.49.000 E170.59.07.001
Loading chart...

Current Weather

NZHK 161600Z 02027G40KT 1900 RA BR BKN006 12/12 Q0996 RMK AUTO VATSIM USE ONLY

Published 1 days 1 hours 41 minutes ago

Airport Activity

Loading chart...
Loading chart...

Positions

CallsignRadio Name / Freq / Voice Room / TypeFrequencyVoice RoomType
NZCH-K_CTR Christchurch Control
129.400
nzch-k_ctr
129.400nzch-k_ctr
UNICOM NZZC UNICOM
122.800
unicom_nzzc
122.800unicom_nzzc

Charts

Departure Charts

Departure